Location: Binningen
(47.7924°N, 8.7261°E)
Time: 02:50:14
(UTC+00:00)

Terra - Pass Details

Date: 28 September 2021
Orbit: 701 x 703 km, 98.2° (Epoch: 19 October)

Event Time Altitude Azimuth Distance (km) Brightness Sun altitude
Exits shadow 20:22:12 17° 16° (NNE) 1,754 4.0 -31.2°
Drops below altitude 10° 20:23:31 10° 5° (N) 2,181 4.7 -31.4°
Sets 20:25:59 0° 355° (N) 3,104 5.7 -31.8°
